| time (UTC) | temp F | wind direction | speed knots | gust knots | rain 1hr in | rain 24hr in | rain mn in | humidity % | barometer mb |
| 20260903233416 | 59 | 136 | 4.3 | 10.4 | 0.00 | 0.35 | 0.19 | 82 | 1008.9 |
| 20260903232909 | 59 | 145 | 3.5 | 7.0 | 0.00 | 0.37 | 0.19 | 82 | 1008.9 |
| 20260903232410 | 59 | 176 | 3.5 | 6.1 | 0.00 | 0.41 | 0.19 | 82 | 1009.0 |
| 20260903231909 | 59 | 159 | 3.5 | 7.0 | 0.00 | 0.41 | 0.19 | 82 | 1009.0 |
| 20260903231407 | 59 | 157 | 4.3 | 7.8 | 0.00 | 0.41 | 0.19 | 81 | 1009.0 |
| 20260903231130 | 59 | 124 | 5.2 | 8.7 | 0.00 | 0.42 | 0.19 | 81 | 1009.0 |
| 20260903230404 | 59 | 129 | 5.2 | 9.6 | 0.00 | 0.42 | 0.19 | 81 | 1009.1 |
| 20260903225903 | 59 | 126 | 5.2 | 9.6 | 0.00 | 0.43 | 0.19 | 81 | 1009.3 |
| 20260903225403 | 59 | 118 | 6.1 | 9.6 | 0.05 | 0.43 | 0.19 | 81 | 1009.2 |
| 20260903224902 | 59 | 149 | 6.1 | 9.6 | 0.07 | 0.43 | 0.19 | 81 | 1009.3 |
| 20260903224401 | 59 | 156 | 6.1 | 9.6 | 0.15 | 0.43 | 0.19 | 83 | 1009.4 |
| 20260903223859 | 58 | 140 | 6.1 | 9.6 | 0.18 | 0.43 | 0.19 | 83 | 1009.5 |
| 20260903223401 | 58 | 129 | 5.2 | 9.6 | 0.19 | 0.43 | 0.19 | 84 | 1009.5 |
| 20260903222858 | 58 | 142 | 5.2 | 9.6 | 0.19 | 0.43 | 0.19 | 86 | 1009.5 |
| 20260903222359 | 58 | 143 | 4.3 | 8.7 | 0.19 | 0.43 | 0.19 | 84 | 1009.5 |
| 20260903221856 | 58 | 143 | 2.6 | 8.7 | 0.19 | 0.43 | 0.19 | 86 | 1009.5 |
| 20260903221359 | 56 | 143 | 4.3 | 14.8 | 0.19 | 0.44 | 0.19 | 85 | 1009.5 |
| 20260903220856 | 56 | 158 | 7.8 | 14.8 | 0.19 | 0.44 | 0.19 | 85 | 1009.6 |
| 20260903220355 | 56 | 172 | 7.8 | 13.0 | 0.19 | 0.44 | 0.19 | 86 | 1009.8 |
| 20260903215853 | 56 | 139 | 8.7 | 15.6 | 0.18 | 0.43 | 0.19 | 88 | 1010.0 |
| 20260903215842 | 57 | 170 | 7.8 | 15.6 | 0.14 | 0.41 | 0.15 | 88 | 1009.9 |
| 20260903214853 | 58 | 254 | 2.6 | 13.0 | 0.11 | 0.38 | 0.11 | 84 | 1009.6 |
| 20260903214351 | 60 | 234 | 3.5 | 13.9 | 0.04 | 0.31 | 0.04 | 81 | 1009.4 |
| 20260903213851 | 61 | 245 | 7.8 | 13.9 | 0.01 | 0.28 | 0.02 | 75 | 1009.3 |
| 20260903213842 | 63 | 272 | 7.8 | 13.0 | 0.00 | 0.27 | 0.01 | 70 | 1009.0 |
| 20260903212849 | 65 | 281 | 6.1 | 13.0 | 0.00 | 0.27 | 0.00 | 62 | 1008.9 |
| 20260903212615 | 65 | 187 | 4.3 | 9.6 | 0.00 | 0.28 | 0.00 | 61 | 1008.8 |
| 20260903211848 | 65 | 233 | 4.3 | 9.6 | 0.00 | 0.30 | 0.00 | 61 | 1008.9 |
| 20260903211349 | 65 | 231 | 5.2 | 10.4 | 0.00 | 0.31 | 0.00 | 62 | 1008.9 |
| 20260903210847 | 65 | 178 | 6.1 | 12.2 | 0.00 | 0.31 | 0.00 | 61 | 1008.8 |
| 20260903210346 | 65 | 193 | 6.1 | 12.2 | 0.00 | 0.31 | 0.00 | 62 | 1008.9 |
| 20260903205845 | 65 | 207 | 7.8 | 13.9 | 0.00 | 0.31 | 0.00 | 62 | 1008.8 |
| 20260903205344 | 65 | 193 | 9.6 | 17.4 | 0.00 | 0.31 | 0.00 | 60 | 1008.8 |
| 20260903204845 | 65 | 199 | 8.7 | 17.4 | 0.00 | 0.31 | 0.00 | 61 | 1008.8 |
| 20260903204343 | 65 | 156 | 7.8 | 14.8 | 0.00 | 0.31 | 0.00 | 60 | 1008.8 |
| 20260903204105 | 65 | 218 | 7.8 | 15.6 | 0.00 | 0.31 | 0.00 | 63 | 1008.9 |
| 20260903203342 | 65 | 172 | 9.6 | 15.6 | 0.00 | 0.32 | 0.00 | 63 | 1009.0 |
| 20260903202843 | 65 | 177 | 9.6 | 17.4 | 0.00 | 0.32 | 0.00 | 62 | 1009.1 |
| 20260903202341 | 65 | 173 | 9.6 | 17.4 | 0.00 | 0.32 | 0.00 | 62 | 1009.0 |
| 20260903201842 | 66 | 185 | 9.6 | 17.4 | 0.00 | 0.32 | 0.00 | 60 | 1009.1 |
| 20260903201342 | 66 | 172 | 9.6 | 16.5 | 0.00 | 0.32 | 0.00 | 62 | 1009.1 |
| 20260903201100 | 66 | 145 | 10.4 | 19.1 | 0.00 | 0.32 | 0.00 | 62 | 1009.0 |
| 20260903200337 | 65 | 179 | 9.6 | 19.1 | 0.00 | 0.32 | 0.00 | 62 | 1009.2 |
| 20260903195835 | 66 | 172 | 9.6 | 19.1 | 0.00 | 0.32 | 0.00 | 64 | 1009.3 |
| 20260903195331 | 66 | 260 | 9.6 | 18.2 | 0.00 | 0.32 | 0.00 | 66 | 1009.1 |
| 20260903194829 | 67 | 161 | 8.7 | 19.1 | 0.00 | 0.32 | 0.00 | 62 | 1009.2 |
| 20260903194329 | 67 | 162 | 7.8 | 19.1 | 0.00 | 0.32 | 0.00 | 67 | 1009.3 |
| 20260903194305 | 66 | 183 | 7.8 | 13.0 | 0.00 | 0.32 | 0.00 | 67 | 1009.3 |
| 20260903193326 | 64 | 155 | 7.8 | 13.0 | 0.00 | 0.32 | 0.00 | 68 | 1009.5 |
| 20260903192820 | 63 | 190 | 7.8 | 16.5 | 0.00 | 0.32 | 0.00 | 70 | 1009.5 |
| 20260903192317 | 63 | 197 | 7.8 | 16.5 | 0.00 | 0.32 | 0.00 | 70 | 1009.6 |
| 20260903192034 | 63 | 203 | 7.8 | 15.6 | 0.00 | 0.32 | 0.00 | 71 | 1009.6 |
| 20260903191315 | 62 | 234 | 7.8 | 15.6 | 0.00 | 0.32 | 0.00 | 73 | 1009.8 |
| 20260903190810 | 62 | 197 | 8.7 | 14.8 | 0.00 | 0.32 | 0.00 | 73 | 1009.9 |
| 20260903190310 | 61 | 178 | 9.6 | 16.5 | 0.00 | 0.33 | 0.00 | 74 | 1010.1 |
| 20260903185810 | 61 | 159 | 8.7 | 16.5 | 0.00 | 0.33 | 0.00 | 74 | 1010.0 |
| 20260903185530 | 62 | 194 | 7.8 | 13.9 | 0.00 | 0.33 | 0.00 | 74 | 1010.0 |
| 20260903184808 | 62 | 160 | 7.8 | 15.6 | 0.00 | 0.33 | 0.00 | 76 | 1010.0 |
| 20260903184307 | 60 | 146 | 8.7 | 15.6 | 0.00 | 0.33 | 0.00 | 76 | 1010.0 |
| 20260903183806 | 60 | 173 | 8.7 | 15.6 | 0.00 | 0.34 | 0.00 | 76 | 1010.1 |
| 20260903183305 | 60 | 145 | 7.8 | 15.6 | 0.00 | 0.34 | 0.00 | 75 | 1010.1 |
| 20260903182804 | 60 | 157 | 7.0 | 12.2 | 0.00 | 0.34 | 0.00 | 76 | 1010.1 |
| 20260903182306 | 59 | 183 | 7.0 | 12.2 | 0.00 | 0.34 | 0.00 | 77 | 1010.1 |
| 20260903181805 | 59 | 165 | 7.0 | 12.2 | 0.00 | 0.34 | 0.00 | 77 | 1010.0 |
| 20260903181302 | 59 | 135 | 7.0 | 12.2 | 0.00 | 0.34 | 0.00 | 77 | 1010.0 |
| 20260903180801 | 59 | 149 | 8.7 | 13.9 | 0.00 | 0.34 | 0.00 | 78 | 1010.0 |
| 20260903180305 | 59 | 181 | 7.8 | 13.9 | 0.00 | 0.35 | 0.00 | 77 | 1010.0 |
| 20260903175801 | 59 | 164 | 7.8 | 13.0 | 0.00 | 0.35 | 0.00 | 78 | 1010.0 |
| 20260903175300 | 59 | 148 | 7.0 | 13.0 | 0.00 | 0.35 | 0.00 | 77 | 1010.0 |
| 20260903174800 | 59 | 174 | 6.1 | 11.3 | 0.00 | 0.35 | 0.00 | 77 | 1010.0 |
| 20260903174258 | 59 | 205 | 5.2 | 10.4 | 0.00 | 0.35 | 0.00 | 77 | 1010.0 |
| 20260903174027 | 59 | 175 | 5.2 | 12.2 | 0.00 | 0.35 | 0.00 | 77 | 1010.0 |
| 20260903173522 | 59 | 191 | 6.1 | 12.2 | 0.00 | 0.36 | 0.00 | 77 | 1009.9 |
| 20260903173019 | 59 | 152 | 5.2 | 10.4 | 0.00 | 0.38 | 0.00 | 77 | 1009.8 |
| 20260903172524 | 59 | 164 | 6.1 | 13.9 | 0.00 | 0.39 | 0.00 | 77 | 1009.9 |
| 20260903171754 | 59 | 180 | 6.1 | 13.9 | 0.00 | 0.40 | 0.00 | 78 | 1009.8 |
| 20260903171254 | 59 | 155 | 6.1 | 12.2 | 0.00 | 0.42 | 0.00 | 79 | 1009.8 |
| 20260903170753 | 59 | 163 | 6.1 | 13.9 | 0.00 | 0.45 | 0.00 | 78 | 1009.8 |
| 20260903170254 | 59 | 158 | 7.0 | 13.9 | 0.00 | 0.47 | 0.00 | 77 | 1009.7 |
| 20260903165751 | 59 | 164 | 7.0 | 11.3 | 0.00 | 0.48 | 0.00 | 78 | 1009.7 |
| 20260903165518 | 58 | 154 | 7.0 | 13.0 | 0.00 | 0.49 | 0.00 | 79 | 1009.8 |
| 20260903164752 | 58 | 164 | 7.0 | 13.0 | 0.00 | 0.50 | 0.00 | 79 | 1009.8 |
| 20260903164249 | 58 | 174 | 6.1 | 12.2 | 0.00 | 0.50 | 0.00 | 80 | 1009.9 |
| 20260903164013 | 58 | 153 | 6.1 | 12.2 | 0.00 | 0.50 | 0.00 | 81 | 1009.9 |
| 20260903163248 | 58 | 163 | 5.2 | 10.4 | 0.00 | 0.50 | 0.00 | 82 | 1009.9 |
| 20260903162749 | 58 | 174 | 5.2 | 10.4 | 0.00 | 0.50 | 0.00 | 82 | 1009.9 |
| 20260903162240 | 58 | 151 | 5.2 | 11.3 | 0.00 | 0.50 | 0.00 | 83 | 1009.9 |
| 20260903161740 | 58 | 184 | 5.2 | 11.3 | 0.00 | 0.51 | 0.00 | 83 | 1010.0 |
| 20260903161241 | 57 | 128 | 6.1 | 12.2 | 0.00 | 0.51 | 0.00 | 84 | 1010.0 |
| 20260903160950 | 57 | 135 | 6.1 | 10.4 | 0.00 | 0.51 | 0.00 | 84 | 1010.1 |
| 20260903160832 | 57 | 164 | 7.0 | 12.2 | 0.00 | 0.51 | 0.00 | 84 | 1010.0 |
| 20260903155737 | 57 | 176 | 5.2 | 9.6 | 0.00 | 0.52 | 0.00 | 84 | 1010.1 |
| 20260903155236 | 56 | 172 | 5.2 | 9.6 | 0.00 | 0.53 | 0.00 | 85 | 1010.3 |
| 20260903154737 | 56 | 187 | 5.2 | 9.6 | 0.00 | 0.54 | 0.00 | 85 | 1010.2 |
| 20260903154233 | 56 | 145 | 6.1 | 13.0 | 0.00 | 0.54 | 0.00 | 85 | 1010.2 |
| 20260903153731 | 56 | 172 | 7.0 | 13.0 | 0.00 | 0.54 | 0.00 | 85 | 1010.2 |
| 20260903153231 | 56 | 169 | 6.1 | 10.4 | 0.00 | 0.54 | 0.00 | 85 | 1010.3 |
| 20260903152723 | 56 | 203 | 5.2 | 9.6 | 0.00 | 0.54 | 0.00 | 86 | 1010.3 |
| 20260903152223 | 56 | 167 | 5.2 | 9.6 | 0.00 | 0.54 | 0.00 | 86 | 1010.2 |
| 20260903151724 | 56 | 137 | 4.3 | 8.7 | 0.00 | 0.54 | 0.00 | 85 | 1010.3 |
| 20260903151217 | 56 | 142 | 4.3 | 8.7 | 0.00 | 0.54 | 0.00 | 86 | 1010.1 |
| 20260903150720 | 56 | 154 | 3.5 | 8.7 | 0.00 | 0.54 | 0.00 | 86 | 1010.2 |
| 20260903150217 | 56 | 153 | 2.6 | 6.1 | 0.00 | 0.54 | 0.00 | 87 | 1010.2 |
| 20260903145719 | 55 | 160 | 2.6 | 6.1 | 0.00 | 0.54 | 0.00 | 87 | 1010.1 |
| 20260903145217 | 55 | 172 | 2.6 | 6.1 | 0.00 | 0.54 | 0.00 | 87 | 1010.1 |
| 20260903144718 | 55 | 145 | 3.5 | 7.8 | 0.00 | 0.54 | 0.00 | 87 | 1010.1 |
| 20260903144216 | 55 | 163 | 3.5 | 7.8 | 0.00 | 0.54 | 0.00 | 87 | 1010.2 |
| 20260903143712 | 55 | 170 | 3.5 | 7.0 | 0.00 | 0.54 | 0.00 | 87 | 1010.2 |
| 20260903143211 | 55 | 168 | 4.3 | 7.0 | 0.00 | 0.54 | 0.00 | 87 | 1010.3 |
| 20260903142711 | 55 | 197 | 4.3 | 8.7 | 0.00 | 0.54 | 0.00 | 87 | 1010.3 |
| 20260903142211 | 55 | 163 | 4.3 | 8.7 | 0.00 | 0.54 | 0.00 | 87 | 1010.2 |
| 20260903141710 | 55 | 146 | 3.5 | 7.8 | 0.00 | 0.54 | 0.00 | 87 | 1010.1 |
| 20260903141211 | 55 | 158 | 3.5 | 7.0 | 0.00 | 0.54 | 0.00 | 87 | 1010.0 |
| 20260903140709 | 55 | 170 | 4.3 | 10.4 | 0.00 | 0.54 | 0.00 | 87 | 1010.0 |
| 20260903140219 | 55 | 174 | 6.1 | 11.3 | 0.00 | 0.54 | 0.00 | 87 | 1009.9 |
| 20260903140209 | 55 | 166 | 5.2 | 10.4 | 0.00 | 0.54 | 0.00 | 87 | 1010.0 |
| 20260903135206 | 55 | 168 | 7.0 | 13.9 | 0.00 | 0.54 | 0.00 | 87 | 1009.8 |
| 20260903134708 | 55 | 153 | 7.0 | 13.9 | 0.00 | 0.54 | 0.00 | 87 | 1009.8 |
| 20260903134205 | 55 | 159 | 7.0 | 12.2 | 0.00 | 0.54 | 0.00 | 88 | 1009.8 |
| 20260903133924 | 55 | 149 | 7.0 | 11.3 | 0.00 | 0.54 | 0.00 | 88 | 1009.6 |
| 20260903133206 | 55 | 201 | 6.1 | 10.4 | 0.00 | 0.54 | 0.00 | 88 | 1009.6 |
| 20260903132702 | 55 | 181 | 5.2 | 9.6 | 0.00 | 0.54 | 0.00 | 87 | 1009.8 |
| 20260903132204 | 55 | 181 | 5.2 | 9.6 | 0.00 | 0.54 | 0.00 | 87 | 1009.8 |
| 20260903131922 | 55 | 176 | 5.2 | 9.6 | 0.00 | 0.54 | 0.00 | 87 | 1009.9 |
| 20260903131424 | 55 | 150 | 5.2 | 9.6 | 0.00 | 0.54 | 0.00 | 87 | 1009.9 |
| 20260903130700 | 55 | 186 | 4.3 | 7.8 | 0.00 | 0.54 | 0.00 | 87 | 1009.8 |
| 20260903130159 | 55 | 144 | 5.2 | 10.4 | 0.00 | 0.54 | 0.00 | 87 | 1009.9 |
| 20260903125659 | 55 | 156 | 5.2 | 10.4 | 0.00 | 0.54 | 0.00 | 87 | 1009.8 |
| 20260903125655 | 55 | 169 | 5.2 | 11.3 | 0.00 | 0.54 | 0.00 | 87 | 1009.7 |
| 20260903124913 | 55 | 168 | 5.2 | 11.3 | 0.00 | 0.54 | 0.00 | 87 | 1009.8 |
| 20260903124156 | 55 | 185 | 5.2 | 12.2 | 0.00 | 0.54 | 0.00 | 87 | 1009.9 |
| 20260903123919 | 55 | 133 | 6.1 | 12.2 | 0.00 | 0.54 | 0.00 | 88 | 1009.9 |
| 20260903123155 | 55 | 152 | 7.0 | 12.2 | 0.00 | 0.54 | 0.00 | 88 | 1009.9 |
| 20260903122920 | 55 | 170 | 7.0 | 12.2 | 0.00 | 0.54 | 0.00 | 88 | 1009.9 |
| 20260903122152 | 55 | 153 | 6.1 | 11.3 | 0.00 | 0.54 | 0.00 | 88 | 1010.0 |
| 20260903121653 | 55 | 144 | 6.1 | 11.3 | 0.00 | 0.54 | 0.00 | 89 | 1010.0 |
| 20260903121411 | 55 | 178 | 6.1 | 11.3 | 0.00 | 0.54 | 0.00 | 88 | 1009.8 |
| 20260903120652 | 55 | 153 | 7.0 | 12.2 | 0.00 | 0.54 | 0.00 | 89 | 1009.8 |
| 20260903120151 | 55 | 145 | 7.0 | 12.2 | 0.00 | 0.54 | 0.00 | 89 | 1009.9 |
| 20260903115654 | 55 | 140 | 7.0 | 11.3 | 0.00 | 0.54 | 0.00 | 89 | 1009.9 |
| 20260903115153 | 55 | 158 | 6.1 | 11.3 | 0.00 | 0.54 | 0.00 | 88 | 1010.4 |
| 20260903114651 | 55 | 163 | 6.1 | 8.7 | 0.00 | 0.54 | 0.00 | 88 | 1010.4 |
| 20260903114138 | 55 | 168 | 5.2 | 8.7 | 0.00 | 0.54 | 0.00 | 88 | 1010.5 |
| 20260903113857 | 55 | 175 | 3.5 | 8.7 | 0.00 | 0.54 | 0.00 | 88 | 1010.3 |
| 20260903113108 | 55 | 187 | 2.6 | 7.0 | 0.00 | 0.54 | 0.00 | 88 | 1010.3 |
| 20260903112559 | 55 | 171 | 2.6 | 6.1 | 0.00 | 0.54 | 0.00 | 88 | 1010.2 |
| 20260903112059 | 54 | 189 | 3.5 | 9.6 | 0.00 | 0.54 | 0.00 | 88 | 1010.2 |
| 20260903111600 | 55 | 196 | 4.3 | 9.6 | 0.00 | 0.54 | 0.00 | 88 | 1010.3 |
| 20260903111058 | 55 | 197 | 5.2 | 8.7 | 0.00 | 0.54 | 0.00 | 87 | 1010.2 |
| 20260903110557 | 55 | 176 | 5.2 | 8.7 | 0.00 | 0.54 | 0.00 | 87 | 1010.0 |
| 20260903110055 | 55 | 134 | 6.1 | 10.4 | 0.00 | 0.54 | 0.00 | 86 | 1010.0 |
| 20260903105558 | 55 | 177 | 6.1 | 10.4 | 0.00 | 0.54 | 0.00 | 87 | 1010.0 |
| 20260903105057 | 55 | 176 | 6.1 | 10.4 | 0.00 | 0.54 | 0.00 | 86 | 1010.0 |
| 20260903104553 | 55 | 202 | 5.2 | 10.4 | 0.00 | 0.54 | 0.00 | 86 | 1009.9 |
| 20260903104052 | 55 | 152 | 6.1 | 10.4 | 0.00 | 0.54 | 0.00 | 87 | 1010.1 |
| 20260903103552 | 55 | 153 | 6.1 | 10.4 | 0.00 | 0.54 | 0.00 | 87 | 1010.1 |
| 20260903103050 | 55 | 175 | 6.1 | 11.3 | 0.00 | 0.54 | 0.00 | 87 | 1010.2 |
| 20260903102551 | 55 | 170 | 6.1 | 11.3 | 0.00 | 0.54 | 0.00 | 87 | 1010.1 |
| 20260903102054 | 55 | 172 | 5.2 | 9.6 | 0.00 | 0.54 | 0.00 | 87 | 1010.2 |
| 20260903101552 | 55 | 176 | 6.1 | 12.2 | 0.00 | 0.54 | 0.00 | 87 | 1010.1 |
| 20260903101313 | 56 | 156 | 7.0 | 12.2 | 0.00 | 0.54 | 0.00 | 87 | 1010.2 |
| 20260903100549 | 55 | 228 | 7.0 | 11.3 | 0.00 | 0.54 | 0.00 | 87 | 1010.1 |
| 20260903100047 | 55 | 156 | 5.2 | 10.4 | 0.00 | 0.54 | 0.00 | 87 | 1010.7 |
| 20260903095548 | 55 | 172 | 5.2 | 9.6 | 0.00 | 0.54 | 0.00 | 88 | 1010.1 |
| 20260903095047 | 55 | 162 | 5.2 | 9.6 | 0.00 | 0.54 | 0.00 | 88 | 1010.2 |
| 20260903094545 | 55 | 164 | 5.2 | 9.6 | 0.00 | 0.54 | 0.00 | 88 | 1010.3 |
| 20260903094305 | 55 | 171 | 5.2 | 9.6 | 0.00 | 0.54 | 0.00 | 89 | 1010.3 |
| 20260903093545 | 55 | 149 | 4.3 | 9.6 | 0.00 | 0.54 | 0.00 | 89 | 1010.3 |
| 20260903093309 | 55 | 189 | 4.3 | 9.6 | 0.00 | 0.54 | 0.00 | 89 | 1010.4 |
| 20260903092542 | 55 | 160 | 4.3 | 7.8 | 0.00 | 0.54 | 0.00 | 89 | 1010.4 |
| 20260903092042 | 55 | 180 | 4.3 | 7.8 | 0.00 | 0.54 | 0.00 | 89 | 1010.6 |
| 20260903091540 | 55 | 182 | 4.3 | 8.7 | 0.00 | 0.54 | 0.00 | 88 | 1010.6 |
| 20260903091040 | 55 | 157 | 4.3 | 8.7 | 0.00 | 0.54 | 0.00 | 89 | 1010.6 |
| 20260903090538 | 55 | 185 | 4.3 | 8.7 | 0.00 | 0.54 | 0.00 | 88 | 1010.5 |
| 20260903090038 | 55 | 184 | 5.2 | 9.6 | 0.00 | 0.54 | 0.00 | 89 | 1010.6 |
| 20260903085538 | 55 | 200 | 5.2 | 10.4 | 0.00 | 0.54 | 0.00 | 89 | 1010.6 |
| 20260903085037 | 55 | 174 | 5.2 | 10.4 | 0.00 | 0.54 | 0.00 | 89 | 1010.6 |
| 20260903084756 | 55 | 194 | 4.3 | 9.6 | 0.00 | 0.54 | 0.00 | 88 | 1010.6 |
| 20260903084036 | 56 | 187 | 5.2 | 10.4 | 0.00 | 0.54 | 0.00 | 88 | 1010.6 |
| 20260903083535 | 56 | 176 | 5.2 | 10.4 | 0.00 | 0.54 | 0.00 | 87 | 1010.5 |
| 20260903083035 | 56 | 197 | 6.1 | 13.9 | 0.00 | 0.54 | 0.00 | 87 | 1010.5 |
| 20260903082534 | 56 | 145 | 6.1 | 13.9 | 0.00 | 0.54 | 0.00 | 86 | 1010.5 |
| 20260903082034 | 56 | 195 | 5.2 | 10.4 | 0.00 | 0.54 | 0.00 | 86 | 1010.5 |
| 20260903081530 | 56 | 210 | 5.2 | 9.6 | 0.00 | 0.54 | 0.00 | 86 | 1010.6 |
| 20260903081041 | 56 | 110 | 5.2 | 9.6 | 0.00 | 0.54 | 0.00 | 87 | 1010.6 |
| 20260903080532 | 56 | 162 | 5.2 | 9.6 | 0.00 | 0.54 | 0.00 | 87 | 1010.5 |
| 20260903080030 | 56 | 172 | 5.2 | 10.4 | 0.00 | 0.54 | 0.00 | 88 | 1010.5 |
| 20260903075530 | 56 | 149 | 6.1 | 10.4 | 0.00 | 0.54 | 0.00 | 88 | 1010.5 |
| 20260903075031 | 56 | 153 | 5.2 | 9.6 | 0.00 | 0.54 | 0.00 | 88 | 1010.5 |
| 20260903074530 | 56 | 172 | 5.2 | 8.7 | 0.00 | 0.54 | 0.00 | 89 | 1010.7 |
| 20260903074031 | 56 | 138 | 5.2 | 9.6 | 0.00 | 0.54 | 0.00 | 89 | 1010.6 |
| 20260903073532 | 56 | 171 | 6.1 | 11.3 | 0.00 | 0.54 | 0.00 | 90 | 1010.6 |
| 20260903073254 | 55 | 197 | 6.1 | 11.3 | 0.00 | 0.54 | 0.00 | 90 | 1010.7 |
| 20260903072531 | 55 | 160 | 6.1 | 11.3 | 0.00 | 0.54 | 0.00 | 90 | 1010.6 |
| 20260903072026 | 55 | 183 | 6.1 | 11.3 | 0.00 | 0.54 | 0.00 | 90 | 1010.5 |
| 20260903071527 | 55 | 126 | 5.2 | 10.4 | 0.00 | 0.54 | 0.00 | 90 | 1010.6 |
| 20260903071026 | 55 | 148 | 5.2 | 8.7 | 0.00 | 0.54 | 0.00 | 91 | 1010.6 |
| 20260903070745 | 55 | 128 | 4.3 | 7.8 | 0.00 | 0.54 | 0.00 | 91 | 1010.6 |
| 20260903070024 | 55 | 164 | 4.3 | 8.7 | 0.00 | 0.54 | 0.00 | 91 | 1010.6 |
| 20260903065525 | 55 | 138 | 5.2 | 8.7 | 0.00 | 0.54 | 0.54 | 91 | 1010.6 |
| 20260903065023 | 55 | 145 | 5.2 | 9.6 | 0.00 | 0.54 | 0.54 | 91 | 1010.7 |
| 20260903064518 | 55 | 153 | 5.2 | 9.6 | 0.00 | 0.54 | 0.54 | 92 | 1010.6 |
| 20260903064015 | 55 | 132 | 5.2 | 8.7 | 0.00 | 0.54 | 0.54 | 92 | 1010.5 |
| 20260903063515 | 54 | 143 | 4.3 | 8.7 | 0.00 | 0.54 | 0.54 | 93 | 1010.5 |
| 20260903063010 | 54 | 123 | 2.6 | 6.1 | 0.00 | 0.54 | 0.54 | 93 | 1010.6 |
| 20260903062509 | 53 | 144 | 1.7 | 3.5 | 0.00 | 0.54 | 0.54 | 93 | 1010.7 |
| 20260903062009 | 53 | 163 | 0.9 | 3.5 | 0.00 | 0.54 | 0.54 | 92 | 1010.6 |
| 20260903061506 | 54 | 172 | 1.7 | 2.6 | 0.00 | 0.54 | 0.54 | 93 | 1010.7 |
| 20260903061225 | 54 | 174 | 1.7 | 3.5 | 0.00 | 0.54 | 0.54 | 92 | 1010.7 |
| 20260903060500 | 54 | 166 | 1.7 | 3.5 | 0.00 | 0.54 | 0.54 | 93 | 1010.6 |
| 20260903060002 | 54 | 129 | 1.7 | 3.5 | 0.00 | 0.54 | 0.54 | 93 | 1010.5 |
| 20260903055458 | 54 | 150 | 0.9 | 4.3 | 0.00 | 0.54 | 0.54 | 92 | 1010.7 |
| 20260903055234 | 54 | 167 | 1.7 | 4.3 | 0.00 | 0.54 | 0.54 | 92 | 1010.4 |
| 20260903054456 | 54 | 157 | 2.6 | 4.3 | 0.00 | 0.54 | 0.54 | 92 | 1010.6 |
| 20260903053957 | 55 | 162 | 2.6 | 4.3 | 0.00 | 0.54 | 0.54 | 92 | 1010.6 |
| 20260903053452 | 55 | 187 | 2.6 | 5.2 | 0.00 | 0.54 | 0.54 | 92 | 1010.7 |
| 20260903052954 | 55 | 137 | 3.5 | 5.2 | 0.00 | 0.54 | 0.54 | 92 | 1010.7 |
| 20260903052935 | 55 | 155 | 3.5 | 5.2 | 0.00 | 0.54 | 0.54 | 92 | 1010.6 |
| 20260903051952 | 55 | 127 | 2.6 | 5.2 | 0.00 | 0.54 | 0.54 | 92 | 1010.7 |
| 20260903051452 | 55 | 140 | 1.7 | 4.3 | 0.00 | 0.54 | 0.54 | 93 | 1010.7 |
| 20260903050954 | 55 | 148 | 1.7 | 3.5 | 0.00 | 0.54 | 0.54 | 93 | 1010.6 |
| 20260903050448 | 54 | 144 | 1.7 | 3.5 | 0.00 | 0.54 | 0.54 | 93 | 1010.6 |
| 20260903045950 | 54 | 153 | 1.7 | 3.5 | 0.00 | 0.54 | 0.54 | 93 | 1010.7 |
| 20260903045449 | 54 | 137 | 1.7 | 3.5 | 0.00 | 0.54 | 0.54 | 93 | 1010.7 |
| 20260903044948 | 54 | 137 | 2.6 | 4.3 | 0.00 | 0.54 | 0.54 | 93 | 1010.6 |
| 20260903044446 | 54 | 129 | 2.6 | 4.3 | 0.00 | 0.54 | 0.54 | 92 | 1010.7 |
| 20260903043944 | 54 | 126 | 2.6 | 3.5 | 0.00 | 0.54 | 0.54 | 92 | 1010.7 |
| 20260903043444 | 55 | 129 | 2.6 | 3.5 | 0.00 | 0.54 | 0.54 | 92 | 1010.6 |
| 20260903042943 | 54 | 126 | 1.7 | 3.5 | 0.00 | 0.54 | 0.54 | 92 | 1010.6 |
| 20260903042705 | 54 | 128 | 1.7 | 3.5 | 0.00 | 0.54 | 0.54 | 92 | 1010.6 |
| 20260903041933 | 55 | 129 | 1.7 | 3.5 | 0.00 | 0.54 | 0.54 | 92 | 1010.5 |
| 20260903041658 | 55 | 141 | 1.7 | 4.3 | 0.00 | 0.54 | 0.54 | 92 | 1010.3 |
| 20260903040933 | 55 | 131 | 1.7 | 4.3 | 0.00 | 0.54 | 0.54 | 92 | 1010.2 |
| 20260903040430 | 55 | 141 | 2.6 | 3.5 | 0.00 | 0.54 | 0.54 | 91 | 1010.2 |
| 20260903035930 | 55 | 134 | 2.6 | 3.5 | 0.00 | 0.54 | 0.54 | 91 | 1010.1 |
| 20260903035426 | 55 | 152 | 2.6 | 3.5 | 0.00 | 0.54 | 0.54 | 91 | 1010.0 |
| 20260903034920 | 56 | 147 | 2.6 | 3.5 | 0.00 | 0.54 | 0.54 | 91 | 1010.0 |
| 20260903034422 | 55 | 145 | 1.7 | 3.5 | 0.00 | 0.54 | 0.54 | 91 | 1010.0 |
| 20260903033916 | 55 | 184 | 1.7 | 3.5 | 0.00 | 0.54 | 0.54 | 91 | 1010.0 |
| 20260903033410 | 56 | 201 | 1.7 | 3.5 | 0.00 | 0.54 | 0.54 | 91 | 1009.9 |
| 20260903032900 | 56 | 202 | 1.7 | 3.5 | 0.00 | 0.54 | 0.54 | 90 | 1009.8 |
| 20260903032400 | 56 | 210 | 1.7 | 3.5 | 0.00 | 0.54 | 0.54 | 90 | 1009.9 |
| 20260903031857 | 56 | 220 | 1.7 | 5.2 | 0.00 | 0.54 | 0.54 | 89 | 1009.8 |
| 20260903031356 | 57 | 165 | 2.6 | 5.2 | 0.00 | 0.54 | 0.54 | 89 | 1009.7 |
| 20260903030856 | 57 | 157 | 2.6 | 5.2 | 0.00 | 0.54 | 0.54 | 89 | 1009.7 |
| 20260903030354 | 57 | 152 | 2.6 | 5.2 | 0.00 | 0.54 | 0.54 | 89 | 1009.6 |
| 20260903025853 | 57 | 168 | 2.6 | 5.2 | 0.00 | 0.54 | 0.54 | 89 | 1009.6 |
| 20260903025352 | 58 | 153 | 2.6 | 4.3 | 0.00 | 0.54 | 0.54 | 89 | 1009.6 |
| 20260903024850 | 58 | 170 | 2.6 | 4.3 | 0.00 | 0.54 | 0.54 | 89 | 1009.6 |
| 20260903024352 | 58 | 180 | 2.6 | 3.5 | 0.00 | 0.54 | 0.54 | 89 | 1009.5 |
| 20260903023849 | 58 | 181 | 2.6 | 6.1 | 0.00 | 0.54 | 0.54 | 89 | 1009.5 |
| 20260903023349 | 59 | 208 | 2.6 | 6.1 | 0.00 | 0.54 | 0.54 | 88 | 1009.5 |
| 20260903022848 | 59 | 207 | 2.6 | 7.8 | 0.00 | 0.54 | 0.54 | 88 | 1009.4 |
| 20260903022347 | 59 | 153 | 3.5 | 7.8 | 0.00 | 0.54 | 0.54 | 87 | 1009.4 |
| 20260903021845 | 59 | 203 | 1.7 | 7.0 | 0.00 | 0.54 | 0.54 | 88 | 1009.3 |
| 20260903021347 | 60 | 184 | 0.9 | 6.1 | 0.00 | 0.54 | 0.54 | 87 | 1009.3 |
| 20260903021104 | 60 | 180 | 0.9 | 0.9 | 0.00 | 0.54 | 0.54 | 86 | 1009.2 |
| 20260903020340 | 60 | 230 | 0.9 | 0.9 | 0.00 | 0.54 | 0.54 | 87 | 1009.2 |
| 20260903015838 | 60 | 220 | 0.9 | 0.9 | 0.00 | 0.54 | 0.54 | 87 | 1009.1 |
| 20260903015338 | 60 | 153 | 0.9 | 0.9 | 0.00 | 0.54 | 0.54 | 86 | 1009.2 |
| 20260903014834 | 60 | 168 | 0.9 | 0.9 | 0.00 | 0.54 | 0.54 | 87 | 1009.1 |
| 20260903014334 | 60 | 249 | 0.9 | 0.9 | 0.00 | 0.54 | 0.54 | 88 | 1009.0 |
| 20260903013830 | 60 | 168 | 0.9 | 0.9 | 0.00 | 0.54 | 0.54 | 88 | 1009.1 |
| 20260903013322 | 60 | 231 | 0.0 | 0.9 | 0.00 | 0.54 | 0.54 | 88 | 1009.0 |
| 20260903012823 | 60 | 276 | 0.0 | 0.9 | 0.00 | 0.54 | 0.54 | 88 | 1008.9 |
| 20260903012322 | 60 | 286 | 0.0 | 0.9 | 0.00 | 0.54 | 0.54 | 86 | 1008.9 |
| 20260903011824 | 60 | 238 | 0.0 | 0.9 | 0.00 | 0.54 | 0.54 | 87 | 1008.9 |
| 20260903011320 | 60 | 232 | 0.9 | 0.9 | 0.01 | 0.54 | 0.54 | 89 | 1008.9 |
| 20260903010821 | 60 | 266 | 0.9 | 0.9 | 0.01 | 0.54 | 0.54 | 89 | 1008.9 |
| 20260903010312 | 60 | 277 | 0.9 | 0.9 | 0.02 | 0.54 | 0.54 | 89 | 1008.9 |
| 20260903005813 | 60 | 235 | 0.0 | 0.9 | 0.03 | 0.54 | 0.54 | 91 | 1008.9 |
| 20260903005309 | 59 | 286 | 0.0 | 0.9 | 0.05 | 0.54 | 0.54 | 91 | 1008.9 |
| 20260903004807 | 59 | 270 | 0.0 | 0.9 | 0.07 | 0.54 | 0.54 | 89 | 1009.0 |
| 20260903004306 | 59 | 244 | 0.0 | 0.9 | 0.09 | 0.54 | 0.54 | 90 | 1008.8 |
| 20260903003806 | 59 | 276 | 0.0 | 0.9 | 0.11 | 0.54 | 0.54 | 91 | 1008.7 |
| 20260903003305 | 59 | 255 | 0.0 | 0.9 | 0.17 | 0.54 | 0.54 | 92 | 1008.5 |
| 20260903002807 | 59 | 271 | 0.0 | 0.9 | 0.19 | 0.54 | 0.54 | 92 | 1008.6 |
| 20260903002306 | 60 | 198 | 0.9 | 0.9 | 0.22 | 0.54 | 0.54 | 94 | 1008.6 |
| 20260903002029 | 60 | 172 | 0.9 | 0.9 | 0.22 | 0.54 | 0.54 | 94 | 1008.4 |
| 20260903001259 | 60 | 160 | 0.9 | 0.9 | 0.21 | 0.53 | 0.54 | 94 | 1008.3 |
| 20260903000801 | 59 | 156 | 0.9 | 0.9 | 0.22 | 0.53 | 0.53 | 94 | 1008.5 |
| 20260903000519 | 59 | 222 | 0.9 | 0.9 | 0.21 | 0.52 | 0.52 | 94 | 1008.4 |
| 20260903000024 | 59 | 225 | 0.9 | 0.9 | 0.21 | 0.51 | 0.51 | 94 | 1008.3 |
| 20260902235259 | 59 | 215 | 0.9 | 0.9 | 0.19 | 0.49 | 0.49 | 94 | 1008.3 |
| 20260902234801 | 59 | 222 | 0.9 | 0.9 | 0.17 | 0.47 | 0.47 | 94 | 1008.2 |
| 20260902234257 | 59 | 231 | 0.9 | 0.9 | 0.15 | 0.45 | 0.45 | 94 | 1008.1 |
| 20260902233801 | 59 | 203 | 0.0 | 0.9 | 0.13 | 0.43 | 0.43 | 93 | 1008.1 |